Year,Month,Day,Hour,Minute,Value (Times are PST for temperature in C)
2020,12,06,00,00,4.70
2020,12,06,00,01,4.70
2020,12,06,00,02,4.70
2020,12,06,00,03,4.70
2020,12,06,00,04,4.60
2020,12,06,00,05,4.60
2020,12,06,00,06,4.60
2020,12,06,00,07,4.60
2020,12,06,00,08,4.60
2020,12,06,00,09,4.60
2020,12,06,00,10,4.60
2020,12,06,00,11,4.60
2020,12,06,00,12,4.60
2020,12,06,00,13,4.70
2020,12,06,00,14,4.70
2020,12,06,00,15,4.70
2020,12,06,00,16,4.70
2020,12,06,00,17,4.70
2020,12,06,00,18,4.70
2020,12,06,00,19,4.70
2020,12,06,00,20,4.70
2020,12,06,00,21,4.70
2020,12,06,00,22,4.70
2020,12,06,00,23,4.70
2020,12,06,00,24,4.70
2020,12,06,00,25,4.70
2020,12,06,00,26,4.70
2020,12,06,00,27,4.70
2020,12,06,00,28,4.70
2020,12,06,00,29,4.70
2020,12,06,00,30,4.70
2020,12,06,00,31,4.70
2020,12,06,00,32,4.70
2020,12,06,00,33,4.70
2020,12,06,00,34,4.70
2020,12,06,00,35,4.70
2020,12,06,00,36,4.70
2020,12,06,00,37,4.80
2020,12,06,00,38,4.80
2020,12,06,00,39,4.80
2020,12,06,00,40,4.80
2020,12,06,00,41,4.80
2020,12,06,00,42,4.80
2020,12,06,00,43,4.80
2020,12,06,00,44,4.80
2020,12,06,00,45,4.80
2020,12,06,00,46,4.80
2020,12,06,00,47,4.80
2020,12,06,00,48,4.80
2020,12,06,00,49,4.80
2020,12,06,00,50,4.80
2020,12,06,00,51,4.70
2020,12,06,00,52,4.70
2020,12,06,00,53,4.70
2020,12,06,00,54,4.70
2020,12,06,00,55,4.70
2020,12,06,00,56,4.70
2020,12,06,00,57,4.70
2020,12,06,00,58,4.70
2020,12,06,00,59,4.70
2020,12,06,01,00,4.70
2020,12,06,01,01,4.70
2020,12,06,01,02,4.70
2020,12,06,01,03,4.70
2020,12,06,01,04,4.70
2020,12,06,01,05,4.70
2020,12,06,01,06,4.70
2020,12,06,01,07,4.70
2020,12,06,01,08,4.70
2020,12,06,01,09,4.70
2020,12,06,01,10,4.70
2020,12,06,01,11,4.70
2020,12,06,01,12,4.70
2020,12,06,01,13,4.70
2020,12,06,01,14,4.70
2020,12,06,01,15,4.70
2020,12,06,01,16,4.70
2020,12,06,01,17,4.70
2020,12,06,01,18,4.70
2020,12,06,01,19,4.70
2020,12,06,01,20,4.70
2020,12,06,01,21,4.70
2020,12,06,01,22,4.70
2020,12,06,01,23,4.70
2020,12,06,01,24,4.70
2020,12,06,01,25,4.70
2020,12,06,01,26,4.70
2020,12,06,01,27,4.70
2020,12,06,01,28,4.70
2020,12,06,01,29,4.70
2020,12,06,01,30,4.70
2020,12,06,01,31,4.70
2020,12,06,01,32,4.70
2020,12,06,01,33,4.70
2020,12,06,01,34,4.70
2020,12,06,01,35,4.70
2020,12,06,01,36,4.70
2020,12,06,01,37,4.70
2020,12,06,01,38,4.70
2020,12,06,01,39,4.70
2020,12,06,01,40,4.70
2020,12,06,01,41,4.70
2020,12,06,01,42,4.70
2020,12,06,01,43,4.70
2020,12,06,01,44,4.70
2020,12,06,01,45,4.70
2020,12,06,01,46,4.70
2020,12,06,01,47,4.70
2020,12,06,01,48,4.70
2020,12,06,01,49,4.70
2020,12,06,01,50,4.70
2020,12,06,01,51,4.70
2020,12,06,01,52,4.70
2020,12,06,01,53,4.70
2020,12,06,01,54,4.70
2020,12,06,01,55,4.70
2020,12,06,01,56,4.70
2020,12,06,01,57,4.70
2020,12,06,01,58,4.70
2020,12,06,01,59,4.70
2020,12,06,02,00,4.70
2020,12,06,02,01,4.70
2020,12,06,02,02,4.70
2020,12,06,02,03,4.70
2020,12,06,02,04,4.80
2020,12,06,02,05,4.80
2020,12,06,02,06,4.80
2020,12,06,02,07,4.80
2020,12,06,02,08,4.80
2020,12,06,02,09,4.80
2020,12,06,02,10,4.80
2020,12,06,02,11,4.80
2020,12,06,02,12,4.80
2020,12,06,02,13,4.80
2020,12,06,02,14,4.80
2020,12,06,02,15,4.80
2020,12,06,02,16,4.80
2020,12,06,02,17,4.80
2020,12,06,02,18,4.80
2020,12,06,02,19,4.80
2020,12,06,02,20,4.80
2020,12,06,02,21,4.80
2020,12,06,02,22,4.80
2020,12,06,02,23,4.80
2020,12,06,02,24,4.80
2020,12,06,02,25,4.80
2020,12,06,02,26,4.80
2020,12,06,02,27,4.80
2020,12,06,02,28,4.80
2020,12,06,02,29,4.80
2020,12,06,02,30,4.80
2020,12,06,02,31,4.80
2020,12,06,02,32,4.80
2020,12,06,02,33,4.80
2020,12,06,02,34,4.80
2020,12,06,02,35,4.80
2020,12,06,02,36,4.80
2020,12,06,02,37,4.80
2020,12,06,02,38,4.80
2020,12,06,02,39,4.80
2020,12,06,02,40,4.80
2020,12,06,02,41,4.80
2020,12,06,02,42,4.80
2020,12,06,02,43,4.80
2020,12,06,02,44,4.80
2020,12,06,02,45,4.80
2020,12,06,02,46,4.80
2020,12,06,02,47,4.80
2020,12,06,02,48,4.80
2020,12,06,02,49,4.80
2020,12,06,02,50,4.80
2020,12,06,02,51,4.80
2020,12,06,02,52,4.80
2020,12,06,02,53,4.80
2020,12,06,02,54,4.80
2020,12,06,02,55,4.80
2020,12,06,02,56,4.80
2020,12,06,02,57,4.80
2020,12,06,02,58,4.80
2020,12,06,02,59,4.80
2020,12,06,03,00,4.80
2020,12,06,03,01,4.80
2020,12,06,03,02,4.80
2020,12,06,03,03,4.80
2020,12,06,03,04,4.80
2020,12,06,03,05,4.80
2020,12,06,03,06,4.80
2020,12,06,03,07,4.80
2020,12,06,03,08,4.70
2020,12,06,03,09,4.70
2020,12,06,03,10,4.70
2020,12,06,03,11,4.70
2020,12,06,03,12,4.70
2020,12,06,03,13,4.70
2020,12,06,03,14,4.70
2020,12,06,03,15,4.70
2020,12,06,03,16,4.70
2020,12,06,03,17,4.70
2020,12,06,03,18,4.70
2020,12,06,03,19,4.60
2020,12,06,03,20,4.60
2020,12,06,03,21,4.60
2020,12,06,03,22,4.60
2020,12,06,03,23,4.60
2020,12,06,03,24,4.60
2020,12,06,03,25,4.60
2020,12,06,03,26,4.60
2020,12,06,03,27,4.60
2020,12,06,03,28,4.60
2020,12,06,03,29,4.60
2020,12,06,03,30,4.60
2020,12,06,03,31,4.60
2020,12,06,03,32,4.60
2020,12,06,03,33,4.60
2020,12,06,03,34,4.60
2020,12,06,03,35,4.60
2020,12,06,03,36,4.60
2020,12,06,03,37,4.70
2020,12,06,03,38,4.70
2020,12,06,03,39,4.70
2020,12,06,03,40,4.70
2020,12,06,03,41,4.70
2020,12,06,03,42,4.70
2020,12,06,03,43,4.70
2020,12,06,03,44,4.70
2020,12,06,03,45,4.70
2020,12,06,03,46,4.70
2020,12,06,03,47,4.70
2020,12,06,03,48,4.70
2020,12,06,03,49,4.70
2020,12,06,03,50,4.70
2020,12,06,03,51,4.70
2020,12,06,03,52,4.70
2020,12,06,03,53,4.70
2020,12,06,03,54,4.70
2020,12,06,03,55,4.70
2020,12,06,03,56,4.70
2020,12,06,03,57,4.70
2020,12,06,03,58,4.70
2020,12,06,03,59,4.70
2020,12,06,04,00,4.70
2020,12,06,04,01,4.70
2020,12,06,04,02,4.70
2020,12,06,04,03,4.70
2020,12,06,04,04,4.70
2020,12,06,04,05,4.70
2020,12,06,04,06,4.70
2020,12,06,04,07,4.70
2020,12,06,04,08,4.70
2020,12,06,04,09,4.70
2020,12,06,04,10,4.70
2020,12,06,04,11,4.70
2020,12,06,04,12,4.80
2020,12,06,04,13,4.80
2020,12,06,04,14,4.80
2020,12,06,04,15,4.80
2020,12,06,04,16,4.80
2020,12,06,04,17,4.80
2020,12,06,04,18,4.80
2020,12,06,04,19,4.80
2020,12,06,04,20,4.80
2020,12,06,04,21,4.80
2020,12,06,04,22,4.80
2020,12,06,04,23,4.80
2020,12,06,04,24,4.80
2020,12,06,04,25,4.80
2020,12,06,04,26,4.80
2020,12,06,04,27,4.80
2020,12,06,04,28,4.80
2020,12,06,04,29,4.80
2020,12,06,04,30,4.80
2020,12,06,04,31,4.80
2020,12,06,04,32,4.80
2020,12,06,04,33,4.80
2020,12,06,04,34,4.80
2020,12,06,09,04,6.10
2020,12,06,09,05,6.10
2020,12,06,09,06,6.10
2020,12,06,09,07,6.10
2020,12,06,09,08,6.10
2020,12,06,09,09,6.10
2020,12,06,09,10,6.10
2020,12,06,09,11,6.10
2020,12,06,09,12,6.10
2020,12,06,09,13,6.10
2020,12,06,09,14,6.20
2020,12,06,09,15,6.20
2020,12,06,09,16,6.20
2020,12,06,09,17,6.20
2020,12,06,09,18,6.20
2020,12,06,09,19,6.20
2020,12,06,09,20,6.20
2020,12,06,09,21,6.20
2020,12,06,09,22,6.20
2020,12,06,09,23,6.20
2020,12,06,09,24,6.20
2020,12,06,09,25,6.20
2020,12,06,09,26,6.20
2020,12,06,09,27,6.20
2020,12,06,09,28,6.20
2020,12,06,09,29,6.20
2020,12,06,09,30,6.20
2020,12,06,09,31,6.20
2020,12,06,09,32,6.30
2020,12,06,09,33,6.30
2020,12,06,09,34,6.30
2020,12,06,09,35,6.30
2020,12,06,09,36,6.30
2020,12,06,09,37,6.30
2020,12,06,09,38,6.30
2020,12,06,09,39,6.40
2020,12,06,09,40,6.40
2020,12,06,09,41,6.40
2020,12,06,09,42,6.40
2020,12,06,09,43,6.50
2020,12,06,09,44,6.50
2020,12,06,09,45,6.50
2020,12,06,09,46,6.50
2020,12,06,09,47,6.60
2020,12,06,09,48,6.60
2020,12,06,09,49,6.60
2020,12,06,09,50,6.60
2020,12,06,09,51,6.60
2020,12,06,09,52,6.60
2020,12,06,09,53,6.60
2020,12,06,09,54,6.70
2020,12,06,09,55,6.70
2020,12,06,09,56,6.70
2020,12,06,09,57,6.70
2020,12,06,09,58,6.70
2020,12,06,09,59,6.70
2020,12,06,10,00,6.80
2020,12,06,10,01,6.80
2020,12,06,10,02,6.80
2020,12,06,10,03,6.90
2020,12,06,10,04,6.90
2020,12,06,10,05,7.00
2020,12,06,10,06,7.00
2020,12,06,10,07,7.00
2020,12,06,10,08,7.10
2020,12,06,10,09,7.10
2020,12,06,10,10,7.20
2020,12,06,10,11,7.20
2020,12,06,10,12,7.20
2020,12,06,10,13,7.20
2020,12,06,10,14,7.20
2020,12,06,10,15,7.20
2020,12,06,10,16,7.20
2020,12,06,10,17,7.20
2020,12,06,10,18,7.20
2020,12,06,10,19,7.20
2020,12,06,10,20,7.20
2020,12,06,10,21,7.20
2020,12,06,10,22,7.20
2020,12,06,10,23,7.20
2020,12,06,10,24,7.20
2020,12,06,10,25,7.30
2020,12,06,10,26,7.30
2020,12,06,10,27,7.30
2020,12,06,10,28,7.30
2020,12,06,10,29,7.30
2020,12,06,10,30,7.30
2020,12,06,10,31,7.30
2020,12,06,10,32,7.30
2020,12,06,10,33,7.30
2020,12,06,10,34,7.30
2020,12,06,10,35,7.30
2020,12,06,10,36,7.30
2020,12,06,10,37,7.40
2020,12,06,10,38,7.40
2020,12,06,10,39,7.40
2020,12,06,10,40,7.40
2020,12,06,10,41,7.40
2020,12,06,10,42,7.40
2020,12,06,10,43,7.50
2020,12,06,10,44,7.50
2020,12,06,10,45,7.50
2020,12,06,10,46,7.50
2020,12,06,10,47,7.60
2020,12,06,10,48,7.60
2020,12,06,10,49,7.60
2020,12,06,10,50,7.60
2020,12,06,10,51,7.70
2020,12,06,10,52,7.70
2020,12,06,10,53,7.70
2020,12,06,10,54,7.80
2020,12,06,10,55,7.80
2020,12,06,10,56,7.80
2020,12,06,10,57,7.90
2020,12,06,10,58,7.90
2020,12,06,10,59,7.90
2020,12,06,11,00,8.00
2020,12,06,11,01,8.00
2020,12,06,11,02,8.10
2020,12,06,11,03,8.10
2020,12,06,11,04,8.10
2020,12,06,11,05,8.20
2020,12,06,11,06,8.20
2020,12,06,11,07,8.20
2020,12,06,11,08,8.20
2020,12,06,11,09,8.20
2020,12,06,11,10,8.30
2020,12,06,11,11,8.30
2020,12,06,11,12,8.30
2020,12,06,11,13,8.40
2020,12,06,11,14,8.40
2020,12,06,11,15,8.40
2020,12,06,11,16,8.40
2020,12,06,11,17,8.50
2020,12,06,11,18,8.50
2020,12,06,11,19,8.50
2020,12,06,11,20,8.50
2020,12,06,11,21,8.60
2020,12,06,11,22,8.60
2020,12,06,11,23,8.60
2020,12,06,11,24,8.60
2020,12,06,11,25,8.60
2020,12,06,11,26,8.60
2020,12,06,11,27,8.60
2020,12,06,11,28,8.70
2020,12,06,11,29,8.70
2020,12,06,11,30,8.80
2020,12,06,11,31,8.80
2020,12,06,11,32,8.80
2020,12,06,11,33,8.90
2020,12,06,11,34,8.90
2020,12,06,11,35,9.00
2020,12,06,11,36,9.10
2020,12,06,11,37,9.10
2020,12,06,11,38,9.20
2020,12,06,11,39,9.20
2020,12,06,11,40,9.30
2020,12,06,11,41,9.40
2020,12,06,11,42,9.50
2020,12,06,11,43,9.50
2020,12,06,11,44,9.60
2020,12,06,11,45,9.60
2020,12,06,11,46,9.60
2020,12,06,11,47,9.60
2020,12,06,11,48,9.60
2020,12,06,11,49,9.60
2020,12,06,11,50,9.60
2020,12,06,11,51,9.60
2020,12,06,11,52,9.60
2020,12,06,11,53,9.60
2020,12,06,11,54,9.60
2020,12,06,11,55,9.60
2020,12,06,11,56,9.50
2020,12,06,11,57,9.50
2020,12,06,11,58,9.50
2020,12,06,11,59,9.60
2020,12,06,12,00,9.60
2020,12,06,12,01,9.60
2020,12,06,12,02,9.60
2020,12,06,12,03,9.70
2020,12,06,12,04,9.70
2020,12,06,12,05,9.70
2020,12,06,12,06,9.80
2020,12,06,12,07,9.80
2020,12,06,12,08,9.90
2020,12,06,12,09,10.00
2020,12,06,12,10,10.10
2020,12,06,12,11,10.10
2020,12,06,12,12,10.20
2020,12,06,12,13,10.20
2020,12,06,12,14,10.20
2020,12,06,12,15,10.30
2020,12,06,12,16,10.30
2020,12,06,12,17,10.30
2020,12,06,12,18,10.30
2020,12,06,12,19,10.40
2020,12,06,12,20,10.40
2020,12,06,12,21,10.40
2020,12,06,12,22,10.40
2020,12,06,12,23,10.40
2020,12,06,12,24,10.40
2020,12,06,12,25,10.40
2020,12,06,12,26,10.50
2020,12,06,12,27,10.50
2020,12,06,12,28,10.50
2020,12,06,12,29,10.50
2020,12,06,12,30,10.50
2020,12,06,12,31,10.50
2020,12,06,12,32,10.40
2020,12,06,12,33,10.40
2020,12,06,12,34,10.40
2020,12,06,12,35,10.40
2020,12,06,12,36,10.40
2020,12,06,12,37,10.30
2020,12,06,12,38,10.30
2020,12,06,12,39,10.20
2020,12,06,12,40,10.20
2020,12,06,12,41,10.20
2020,12,06,12,42,10.20
2020,12,06,12,43,10.20
2020,12,06,12,44,10.20
2020,12,06,12,45,10.10
2020,12,06,12,46,10.10
2020,12,06,12,47,10.10
2020,12,06,12,48,10.10
2020,12,06,12,49,10.10
2020,12,06,12,50,10.10
2020,12,06,12,51,10.10
2020,12,06,12,52,10.10
2020,12,06,12,53,10.10
2020,12,06,12,54,10.10
2020,12,06,12,55,10.10
2020,12,06,12,56,10.10
2020,12,06,12,57,10.10
2020,12,06,12,58,10.20
2020,12,06,12,59,10.20
2020,12,06,13,00,10.20
2020,12,06,13,01,10.20
2020,12,06,13,02,10.20
2020,12,06,13,03,10.20
2020,12,06,13,04,10.20
2020,12,06,13,05,10.20
2020,12,06,13,06,10.20
2020,12,06,13,07,10.30
2020,12,06,13,08,10.30
2020,12,06,13,09,10.30
2020,12,06,13,10,10.30
2020,12,06,13,11,10.30
2020,12,06,13,12,10.40
2020,12,06,13,13,10.40
2020,12,06,13,14,10.40
2020,12,06,13,15,10.40
2020,12,06,13,16,10.40
2020,12,06,13,17,10.40
2020,12,06,13,18,10.40
2020,12,06,13,19,10.40
2020,12,06,13,20,10.40
2020,12,06,13,21,10.40
2020,12,06,13,22,10.40
2020,12,06,13,23,10.40
2020,12,06,13,24,10.40
2020,12,06,13,25,10.40
2020,12,06,13,26,10.40
2020,12,06,13,27,10.40
2020,12,06,13,28,10.40
2020,12,06,13,29,10.50
2020,12,06,13,30,10.50
2020,12,06,13,31,10.50
2020,12,06,13,32,10.50
2020,12,06,13,33,10.50
2020,12,06,13,34,10.60
2020,12,06,13,35,10.60
2020,12,06,13,36,10.60
2020,12,06,13,37,10.60
2020,12,06,13,38,10.60
2020,12,06,13,39,10.60
2020,12,06,13,40,10.60
2020,12,06,13,41,10.60
2020,12,06,13,42,10.60
2020,12,06,13,43,10.60
2020,12,06,13,44,10.60
2020,12,06,13,45,10.60
2020,12,06,13,46,10.60
2020,12,06,13,47,10.60
2020,12,06,13,48,10.60
2020,12,06,13,49,10.60
2020,12,06,13,50,10.60
2020,12,06,13,51,10.60
2020,12,06,13,52,10.60
2020,12,06,13,53,10.60
2020,12,06,13,54,10.60
2020,12,06,13,55,10.60
2020,12,06,13,56,10.60
2020,12,06,13,57,10.60
2020,12,06,13,58,10.60
2020,12,06,13,59,10.60
2020,12,06,14,00,10.60
2020,12,06,14,01,10.60
2020,12,06,14,02,10.60
2020,12,06,14,03,10.60
2020,12,06,14,04,10.60
2020,12,06,14,05,10.60
2020,12,06,14,06,10.60
2020,12,06,14,07,10.60
2020,12,06,14,08,10.60
2020,12,06,14,09,10.60
2020,12,06,14,10,10.60
2020,12,06,14,11,10.60
2020,12,06,14,12,10.60
2020,12,06,14,13,10.60
2020,12,06,14,14,10.60
2020,12,06,14,15,10.60
2020,12,06,14,16,10.60
2020,12,06,14,17,10.70
2020,12,06,14,18,10.70
2020,12,06,14,19,10.70
2020,12,06,14,20,10.70
2020,12,06,14,21,10.70
2020,12,06,14,22,10.70
2020,12,06,14,23,10.70
2020,12,06,14,24,10.70
2020,12,06,14,25,10.70
2020,12,06,14,26,10.70
2020,12,06,14,27,10.70
2020,12,06,14,28,10.70
2020,12,06,14,29,10.70
2020,12,06,14,30,10.70
2020,12,06,14,31,10.60
2020,12,06,14,32,10.60
2020,12,06,14,33,10.60
2020,12,06,14,34,10.60
2020,12,06,14,35,10.60
2020,12,06,14,36,10.60
2020,12,06,14,37,10.60
2020,12,06,14,38,10.60
2020,12,06,14,39,10.60
2020,12,06,14,40,10.60
2020,12,06,14,41,10.60
2020,12,06,14,42,10.50
2020,12,06,14,43,10.50
2020,12,06,14,44,10.50
2020,12,06,14,45,10.50
2020,12,06,14,46,10.40
2020,12,06,14,47,10.40
2020,12,06,14,48,10.40
2020,12,06,14,49,10.40
2020,12,06,14,50,10.30
2020,12,06,14,51,10.30
2020,12,06,14,52,10.30
2020,12,06,14,53,10.30
2020,12,06,14,54,10.30
2020,12,06,14,55,10.30
2020,12,06,14,56,10.30
2020,12,06,14,57,10.30
2020,12,06,14,58,10.30
2020,12,06,14,59,10.30
2020,12,06,15,00,10.30
2020,12,06,15,01,10.30
2020,12,06,15,02,10.30
2020,12,06,15,03,10.20
2020,12,06,15,04,10.20
2020,12,06,15,05,10.20
2020,12,06,15,06,10.20
2020,12,06,15,07,10.20
2020,12,06,15,08,10.20
2020,12,06,15,09,10.20
2020,12,06,15,10,10.20
2020,12,06,15,11,10.20
2020,12,06,15,12,10.20
2020,12,06,15,13,10.20
2020,12,06,15,14,10.20
2020,12,06,15,15,10.20
2020,12,06,15,16,10.20
2020,12,06,15,17,10.20
2020,12,06,15,18,10.20
2020,12,06,15,19,10.20
2020,12,06,15,20,10.20
2020,12,06,15,21,10.20
2020,12,06,15,22,10.20
2020,12,06,15,23,10.10
2020,12,06,15,24,10.10
2020,12,06,15,25,10.10
2020,12,06,15,26,10.10
2020,12,06,15,27,10.10
2020,12,06,15,28,10.10
2020,12,06,15,29,10.10
2020,12,06,15,30,10.10
2020,12,06,15,31,10.10
2020,12,06,15,32,10.10
2020,12,06,15,33,10.00
2020,12,06,15,34,10.00
2020,12,06,15,35,10.00
2020,12,06,15,36,9.90
2020,12,06,15,37,9.90
2020,12,06,15,38,9.90
2020,12,06,15,39,9.90
2020,12,06,15,40,9.90
2020,12,06,15,41,9.80
2020,12,06,15,42,9.80
2020,12,06,15,43,9.80
2020,12,06,15,44,9.80
2020,12,06,15,45,9.80
2020,12,06,15,46,9.80
2020,12,06,15,47,9.80
2020,12,06,15,48,9.80
2020,12,06,15,49,9.80
2020,12,06,15,50,9.80
2020,12,06,15,51,9.80
2020,12,06,15,52,9.80
2020,12,06,15,53,9.80
2020,12,06,15,54,9.80
2020,12,06,15,55,9.80
2020,12,06,15,56,9.80
2020,12,06,15,57,9.90
2020,12,06,15,58,10.00
2020,12,06,15,59,10.00
2020,12,06,16,00,10.10
2020,12,06,16,01,10.10
2020,12,06,16,02,10.10
2020,12,06,16,03,10.10
2020,12,06,16,04,10.00
2020,12,06,16,05,10.00
2020,12,06,16,06,10.00
2020,12,06,16,07,10.00
2020,12,06,16,08,9.90
2020,12,06,16,09,9.90
2020,12,06,16,10,9.90
2020,12,06,16,11,9.80
2020,12,06,16,12,9.80
2020,12,06,16,13,9.70
2020,12,06,16,14,9.70
2020,12,06,16,15,9.70
2020,12,06,16,16,9.60
2020,12,06,16,17,9.60
2020,12,06,16,18,9.60
2020,12,06,16,19,9.60
2020,12,06,16,20,9.60
2020,12,06,16,21,9.50
2020,12,06,16,22,9.50
2020,12,06,16,23,9.50
2020,12,06,16,24,9.50
2020,12,06,16,25,9.40
2020,12,06,16,26,9.40
2020,12,06,16,27,9.40
2020,12,06,16,28,9.40
2020,12,06,16,29,9.40
2020,12,06,16,30,9.40
2020,12,06,16,31,9.40
2020,12,06,16,32,9.40
2020,12,06,16,33,9.40
2020,12,06,16,34,9.40
2020,12,06,16,35,9.30
2020,12,06,16,36,9.30
2020,12,06,16,37,9.30
2020,12,06,16,38,9.30
2020,12,06,16,39,9.30
2020,12,06,16,40,9.20
2020,12,06,16,41,9.20
2020,12,06,16,42,9.20
2020,12,06,16,43,9.20
2020,12,06,16,44,9.20
2020,12,06,16,45,9.20
2020,12,06,16,46,9.20
2020,12,06,16,47,9.20
2020,12,06,16,48,9.20
2020,12,06,16,49,9.10
2020,12,06,16,50,9.10
2020,12,06,16,51,9.10
2020,12,06,16,52,9.10
2020,12,06,16,53,9.10
2020,12,06,16,54,9.10
2020,12,06,16,55,9.10
2020,12,06,16,56,9.00
2020,12,06,16,57,9.00
2020,12,06,16,58,9.00
2020,12,06,16,59,8.90
2020,12,06,17,00,8.90
2020,12,06,17,01,8.90
2020,12,06,17,02,8.80
2020,12,06,17,03,8.80
2020,12,06,17,04,8.80
2020,12,06,17,05,8.80
2020,12,06,17,06,8.80
2020,12,06,17,07,8.80
2020,12,06,17,08,8.70
2020,12,06,17,09,8.70
2020,12,06,17,10,8.70
2020,12,06,17,11,8.70
2020,12,06,17,12,8.70
2020,12,06,17,13,8.70
2020,12,06,17,14,8.70
2020,12,06,17,15,8.70
2020,12,06,17,16,8.60
2020,12,06,17,17,8.60
2020,12,06,17,18,8.60
2020,12,06,17,19,8.60
2020,12,06,17,20,8.60
2020,12,06,17,21,8.60
2020,12,06,17,22,8.60
2020,12,06,17,23,8.60
2020,12,06,17,24,8.50
2020,12,06,17,25,8.50
2020,12,06,17,26,8.50
2020,12,06,17,27,8.50
2020,12,06,17,28,8.50
2020,12,06,17,29,8.50
2020,12,06,17,30,8.50
2020,12,06,17,31,8.40
2020,12,06,17,32,8.40
2020,12,06,17,33,8.40
2020,12,06,17,34,8.40
2020,12,06,17,35,8.40
2020,12,06,17,36,8.40
2020,12,06,17,37,8.40
2020,12,06,17,38,8.40
2020,12,06,17,39,8.30
2020,12,06,17,40,8.30
2020,12,06,17,41,8.30
2020,12,06,17,42,8.30
2020,12,06,17,43,8.30
2020,12,06,17,44,8.30
2020,12,06,17,45,8.30
2020,12,06,17,46,8.30
2020,12,06,17,47,8.30
2020,12,06,17,48,8.20
2020,12,06,17,49,8.20
2020,12,06,17,50,8.20
2020,12,06,17,51,8.20
2020,12,06,17,52,8.20
2020,12,06,17,53,8.20
2020,12,06,17,54,8.20
2020,12,06,17,55,8.20
2020,12,06,17,56,8.20
2020,12,06,17,57,8.20
2020,12,06,17,58,8.20
2020,12,06,17,59,8.20
2020,12,06,18,00,8.20
2020,12,06,18,01,8.10
2020,12,06,18,02,8.10
2020,12,06,18,03,8.10
2020,12,06,18,04,8.10
2020,12,06,18,05,8.10
2020,12,06,18,06,8.10
2020,12,06,18,07,8.10
2020,12,06,18,08,8.10
2020,12,06,18,09,8.10
2020,12,06,18,10,8.10
2020,12,06,18,11,8.10
2020,12,06,18,12,8.10
2020,12,06,18,13,8.00
2020,12,06,18,14,8.00
2020,12,06,18,15,8.00
2020,12,06,18,16,8.00
2020,12,06,18,17,8.00
2020,12,06,18,18,8.00
2020,12,06,18,19,8.00
2020,12,06,18,20,8.00
2020,12,06,18,21,8.00
2020,12,06,18,22,8.00
2020,12,06,18,23,7.90
2020,12,06,18,24,7.90
2020,12,06,18,25,7.90
2020,12,06,18,26,7.90
2020,12,06,18,27,7.90
2020,12,06,18,28,7.90
2020,12,06,18,29,7.90
2020,12,06,18,30,7.90
2020,12,06,18,31,7.90
2020,12,06,18,32,7.90
2020,12,06,18,33,7.90
2020,12,06,18,34,7.90
2020,12,06,18,35,7.90
2020,12,06,18,36,7.90
2020,12,06,18,37,7.90
2020,12,06,18,38,7.90
2020,12,06,18,39,7.90
2020,12,06,18,40,7.80
2020,12,06,18,41,7.80
2020,12,06,18,42,7.80
2020,12,06,18,43,7.80
2020,12,06,18,44,7.80
2020,12,06,18,45,7.90
2020,12,06,18,46,7.90
2020,12,06,18,47,7.80
2020,12,06,18,48,7.80
2020,12,06,18,49,7.80
2020,12,06,18,50,7.80
2020,12,06,18,51,7.90
2020,12,06,18,52,7.90
2020,12,06,18,53,7.90
2020,12,06,18,54,7.90
2020,12,06,18,55,7.90
2020,12,06,18,56,7.90
2020,12,06,18,57,7.90
2020,12,06,18,58,7.90
2020,12,06,18,59,7.90
2020,12,06,19,00,7.90
2020,12,06,19,01,7.90
2020,12,06,19,02,7.90
2020,12,06,19,03,7.90
2020,12,06,19,04,8.00
2020,12,06,19,05,8.00
2020,12,06,19,06,8.00
2020,12,06,19,07,8.00
2020,12,06,19,08,8.10
2020,12,06,19,09,8.00
2020,12,06,19,10,8.00
2020,12,06,19,11,8.10
2020,12,06,19,12,8.10
2020,12,06,19,13,8.00
2020,12,06,19,14,8.00
2020,12,06,19,15,8.00
2020,12,06,19,16,8.00
2020,12,06,19,17,8.00
2020,12,06,19,18,8.00
2020,12,06,19,19,8.00
2020,12,06,19,20,8.00
2020,12,06,19,21,8.00
2020,12,06,19,22,8.00
2020,12,06,19,23,8.00
2020,12,06,19,24,8.00
2020,12,06,19,25,8.00
2020,12,06,19,26,8.00
2020,12,06,19,27,8.00
2020,12,06,19,28,7.90
2020,12,06,19,29,7.90
2020,12,06,19,30,7.90
2020,12,06,19,31,7.90
2020,12,06,19,32,7.90
2020,12,06,19,33,7.90
2020,12,06,19,34,7.90
2020,12,06,19,35,7.90
2020,12,06,19,36,7.90
2020,12,06,19,37,7.90
2020,12,06,19,38,7.90
2020,12,06,19,39,7.80
2020,12,06,19,40,7.80
2020,12,06,19,41,7.80
2020,12,06,19,42,7.80
2020,12,06,19,43,7.80
2020,12,06,19,44,7.80
2020,12,06,19,45,7.80
2020,12,06,19,46,7.80
2020,12,06,19,47,7.80
2020,12,06,19,48,7.80
2020,12,06,19,49,7.80
2020,12,06,19,50,7.80
2020,12,06,19,51,7.80
2020,12,06,19,52,7.80
2020,12,06,19,53,7.80
2020,12,06,19,54,7.80
2020,12,06,19,55,7.80
2020,12,06,19,56,7.80
2020,12,06,19,57,7.80
2020,12,06,19,58,7.80
2020,12,06,19,59,7.80
2020,12,06,20,00,7.80
2020,12,06,20,01,7.80
2020,12,06,20,02,7.80
2020,12,06,20,03,7.80
2020,12,06,20,04,7.80
2020,12,06,20,05,7.80
2020,12,06,20,06,7.80
2020,12,06,20,07,7.80
2020,12,06,20,08,7.80
2020,12,06,20,09,7.80
2020,12,06,20,10,7.80
2020,12,06,20,11,7.80
2020,12,06,20,12,7.80
2020,12,06,20,13,7.80
2020,12,06,20,14,7.70
2020,12,06,20,15,7.70
2020,12,06,20,16,7.70
2020,12,06,20,17,7.70
2020,12,06,20,18,7.70
2020,12,06,20,19,7.70
2020,12,06,20,20,7.70
2020,12,06,20,21,7.70
2020,12,06,20,22,7.70
2020,12,06,20,23,7.70
2020,12,06,20,24,7.70
2020,12,06,20,25,7.70
2020,12,06,20,26,7.70
2020,12,06,20,27,7.70
2020,12,06,20,28,7.70
2020,12,06,20,29,7.70
2020,12,06,20,30,7.70
2020,12,06,20,31,7.60
2020,12,06,20,32,7.60
2020,12,06,20,33,7.70
2020,12,06,20,34,7.70
2020,12,06,20,35,7.70
2020,12,06,20,36,7.70
2020,12,06,20,37,7.70
2020,12,06,20,38,7.70
2020,12,06,20,39,7.60
2020,12,06,20,40,7.60
2020,12,06,20,41,7.60
2020,12,06,20,42,7.60
2020,12,06,20,43,7.60
2020,12,06,20,44,7.60
2020,12,06,20,45,7.50
2020,12,06,20,46,7.60
2020,12,06,20,47,7.60
2020,12,06,20,48,7.60
2020,12,06,20,49,7.60
2020,12,06,20,50,7.60
2020,12,06,20,51,7.60
2020,12,06,20,52,7.60
2020,12,06,20,53,7.60
2020,12,06,20,54,7.60
2020,12,06,20,55,7.60
2020,12,06,20,56,7.60
2020,12,06,20,57,7.60
2020,12,06,20,58,7.60
2020,12,06,20,59,7.60
2020,12,06,21,00,7.60
2020,12,06,21,01,7.60
2020,12,06,21,02,7.60
2020,12,06,21,03,7.60
2020,12,06,21,04,7.60
2020,12,06,21,05,7.60
2020,12,06,21,06,7.60
2020,12,06,21,07,7.60
2020,12,06,21,08,7.60
2020,12,06,21,09,7.60
2020,12,06,21,10,7.60
2020,12,06,21,11,7.60
2020,12,06,21,12,7.60
2020,12,06,21,13,7.60
2020,12,06,21,14,7.60
2020,12,06,21,15,7.60
2020,12,06,21,16,7.60
2020,12,06,21,17,7.60
2020,12,06,21,18,7.60
2020,12,06,21,19,7.60
2020,12,06,21,20,7.60
2020,12,06,21,21,7.60
2020,12,06,21,22,7.60
2020,12,06,21,23,7.60
2020,12,06,21,24,7.60
2020,12,06,21,25,7.60
2020,12,06,21,26,7.60
2020,12,06,21,27,7.60
2020,12,06,21,28,7.60
2020,12,06,21,29,7.60
2020,12,06,21,30,7.60
2020,12,06,21,31,7.50
2020,12,06,21,32,7.50
2020,12,06,21,33,7.50
2020,12,06,21,34,7.50
2020,12,06,21,35,7.50
2020,12,06,21,36,7.50
2020,12,06,21,37,7.50
2020,12,06,21,38,7.50
2020,12,06,21,39,7.50
2020,12,06,21,40,7.50
2020,12,06,21,41,7.50
2020,12,06,21,42,7.50
2020,12,06,21,43,7.50
2020,12,06,21,44,7.50
2020,12,06,21,45,7.50
2020,12,06,21,46,7.50
2020,12,06,21,47,7.50
2020,12,06,21,48,7.50
2020,12,06,21,49,7.50
2020,12,06,21,50,7.50
2020,12,06,21,51,7.50
2020,12,06,21,52,7.60
2020,12,06,21,53,7.60
2020,12,06,21,54,7.50
2020,12,06,21,55,7.50
2020,12,06,21,56,7.50
2020,12,06,21,57,7.50
2020,12,06,21,58,7.50
2020,12,06,21,59,7.50
2020,12,06,22,00,7.50
2020,12,06,22,01,7.50
2020,12,06,22,02,7.50
2020,12,06,22,03,7.50
2020,12,06,22,04,7.50
2020,12,06,22,05,7.40
2020,12,06,22,06,7.40
2020,12,06,22,07,7.40
2020,12,06,22,08,7.40
2020,12,06,22,09,7.40
2020,12,06,22,10,7.40
2020,12,06,22,11,7.40
2020,12,06,22,12,7.40
2020,12,06,22,13,7.40
2020,12,06,22,14,7.40
2020,12,06,22,15,7.40
2020,12,06,22,16,7.30
2020,12,06,22,17,7.30
2020,12,06,22,18,7.30
2020,12,06,22,19,7.30
2020,12,06,22,20,7.30
2020,12,06,22,21,7.30
2020,12,06,22,22,7.30
2020,12,06,22,23,7.20
2020,12,06,22,24,7.20
2020,12,06,22,25,7.20